GLOBALSTAR M069

Last updated on Sun Jun 21 2026 00:03:18 GMT+0000 (Coordinated Universal Time)

1 31573U 07020C 26171.44817490 -.00000090 00000+0 22493-4 0 9995 2 31573 52.0019 242.8973 0002270 155.1030 218.5220 12.23471356879209
UTC large
Height (km)
Speed (km/s)
/
Latitude / Longitude
Inclination (degrees)
Orbital Period (minutes)
Azimuth
Elevation
Range (km)
Doppler Factor

Next 0 passes for location: London (51.5072 / 0.1276)

No passes found over London.
GLOBALSTAR M069